This is the latest recevied weather packets stored in our database for station/object OK1VOF-13. If no packets are shown the sender has not sent any weather packets the latest 10 day(s).
| Time | Temp. | Humidity | Pressure | Rain* | Wind** | Luminosity | Snow |
|---|---|---|---|---|---|---|---|
| 1777757519 | 14.44° C | 40% | 1020.5 hPa | 0 mm | - | - | - |
| 1777757220 | 14.44° C | 40% | 1020.6 hPa | 0 mm | - | - | - |
| 1777756922 | 14.44° C | 41% | 1020.6 hPa | 0 mm | - | - | - |
| 1777756623 | 14.44° C | 41% | 1020.7 hPa | 0 mm | - | - | - |
| 1777756324 | 14.44° C | 42% | 1020.7 hPa | 0 mm | - | - | - |
| 1777756025 | 14.44° C | 42% | 1020.7 hPa | 0 mm | - | - | - |
| 1777755726 | 14.44° C | 42% | 1020.7 hPa | 0 mm | - | - | - |
| 1777755428 | 15° C | 39% | 1020.7 hPa | 0 mm | - | - | - |
| 1777755130 | 15.56° C | 38% | 1020.7 hPa | 0 mm | - | - | - |
| 1777754830 | 15° C | 39% | 1020.7 hPa | 0 mm | - | - | - |
| 1777754531 | 15° C | 39% | 1020.7 hPa | 0 mm | - | - | - |
| 1777754233 | 15.56° C | 40% | 1020.8 hPa | 0 mm | - | - | - |
| 1777753934 | 16.11° C | 39% | 1020.8 hPa | 0 mm | - | - | - |
| 1777753635 | 15.56° C | 38% | 1020.8 hPa | 0 mm | - | - | - |
| 1777753336 | 16.11° C | 38% | 1020.8 hPa | 0 mm | - | - | - |
| 1777753037 | 16.11° C | 37% | 1020.9 hPa | 0 mm | - | - | - |
| 1777752739 | 16.67° C | 35% | 1020.8 hPa | 0 mm | - | - | - |
| 1777752440 | 16.67° C | 36% | 1020.9 hPa | 0 mm | - | - | - |
| 1777752141 | 17.22° C | 33% | 1020.8 hPa | 0 mm | - | - | - |
| 1777751842 | 17.22° C | 35% | 1020.8 hPa | 0 mm | - | - | - |
| 1777751544 | 17.22° C | 34% | 1020.8 hPa | 0 mm | - | - | - |
| 1777751245 | 17.78° C | 33% | 1020.8 hPa | 0 mm | - | - | - |
| 1777750946 | 17.78° C | 33% | 1020.8 hPa | 0 mm | - | - | - |
| 1777750647 | 17.78° C | 33% | 1020.8 hPa | 0 mm | - | - | - |
| 1777750348 | 17.78° C | 31% | 1020.8 hPa | 0 mm | - | - | - |
* Rain latest hour (hover to see other rain measurements)
** Current wind speed in m/s (hover to see current wind gust speed)